[[{"header":{"parameterUnit":"m.s-1","parameterCategory":1,"la1":30.2991,"la2":30.254,"lo1":-89.0895,"lo2":-89.0444,"dy":0.0017,"dx":0.0017,"nx":28,"ny":28,"refTime":"2025-06-02T09:00:00:Z","depth":0,"parameterNumber":2,"parameterNumberName":"U-component_of_WINDS"},"data":[0,0,0,0,0,0,0,0,0,0,0,0,0,0,0,0,0,0,0,0,0,0,0,0,0,0,0,0,0,0,0,0,0,0,0,0,0,0,0,0,0,0,0,0,0,0,0,0,0,0,0,0,0,0,0,0,0,0,-3.5227,-3.5227,0,-3.5318,-3.5319,-3.532,-3.5272,-3.5269,-3.5267,-3.5264,-3.5357,-3.5361,-3.5366,0,0,0,0,0,0,0,0,0,0,0,0,0,-3.501,-3.5014,-3.5226,-3.5228,-3.5229,-3.5317,-3.5319,-3.532,-3.5272,-3.5269,-3.5266,-3.5263,-3.5355,-3.5361,-3.5367,0,0,0,0,0,0,0,0,0,0,0,0,0,-3.5103,-3.5015,-3.5226,-3.5215,-3.5215,-3.5317,-3.5319,-3.532,-3.5273,-3.5269,-3.5265,-3.5262,-3.5353,-3.536,-3.5367,-3.5485,0,0,-3.5389,-3.5392,0,0,0,0,0,0,0,0,-3.5097,-3.5111,-3.5216,-3.5216,-3.5217,-3.5279,-3.5276,-3.5375,-3.5274,-3.5251,-3.5264,-3.526,-3.5334,-3.5342,-3.5368,-3.5489,-3.5493,-3.539,-3.5394,-3.5397,-3.5399,0,0,0,0,0,0,0,-3.5091,-3.5106,-3.5262,-3.5217,-3.5218,-3.5206,-3.5215,-3.5295,-3.5312,-3.5253,-3.5249,-3.5261,-3.5333,-3.5361,-3.5369,-3.5494,-3.539,-3.5396,-3.54,-3.5403,-3.5715,-3.5718,0,0,0,0,0,0,-3.5085,-3.5101,-3.526,-3.5265,-3.5147,-3.5213,-3.5223,-3.5263,-3.5311,-3.5315,-3.5264,-3.5258,-3.5351,-3.5361,-3.5372,-3.5511,-3.5397,-3.5404,-3.5408,-3.5711,-3.5716,-3.572,0,0,0,0,0,0,-3.5081,-3.51,-3.5256,-3.5182,-3.5201,-3.522,-3.5266,-3.5267,-3.5294,-3.5319,-3.5322,-3.5289,-3.5348,-3.5362,-3.5457,-3.5514,-3.5407,-3.5413,-3.5706,-3.5712,-3.5718,-3.5791,0,0,0,0,0,0,-3.5075,-3.5099,-3.5144,-3.5184,-3.5205,-3.5339,-3.5269,-3.5271,-3.5306,-3.53,-3.5343,-3.5347,-3.5346,-3.5446,-3.5464,-3.5522,-3.5419,-3.5701,-3.5709,-3.5716,-3.5783,-3.5798,-3.5811,0,0,0,0,0,-3.5067,-3.5161,-3.5146,-3.5165,-3.5262,-3.5343,-3.5355,-3.5352,-3.5311,-3.5356,-3.5373,-3.5346,-3.5505,-3.5456,-3.5476,-3.5536,-3.5697,-3.5706,-3.5715,-3.5777,-3.5795,-3.5811,0,0,0,0,0,0,-3.5127,-3.5166,-3.515,-3.5259,-3.5298,-3.5334,-3.5391,-3.5372,-3.5423,-3.5415,-3.5409,-3.542,-3.5517,-3.5537,-3.5481,-3.5652,-3.5595,-3.5608,-3.5635,-3.5653,-3.5667,-3.5659,-3.5425,0,0,0,0,0,-3.5153,-3.5215,-3.5246,-3.5339,-3.5359,-3.5372,-3.5407,-3.5402,-3.5441,-3.5457,-3.548,-3.552,-3.5578,-3.5617,-3.5673,-3.5787,-3.5794,-3.5838,-3.5852,-3.5863,-3.5874,-3.5934,-3.5953,-3.575,-3.5749,-3.5749,0,0,-3.5206,-3.5236,-3.5275,-3.5352,-3.5381,-3.5445,-3.5386,-3.5457,-3.5503,-3.5468,-3.5557,-3.5576,-3.562,-3.5724,-3.5771,-3.5743,-3.5933,-3.5875,-3.5884,-3.5888,-3.5945,-3.5965,-3.5982,-3.5756,-3.5755,-3.5754,0,0,-3.5337,-3.5366,-3.5446,-3.5477,-3.5522,-3.5529,-3.5549,-3.5588,-3.5599,-3.5689,-3.5663,-3.5719,-3.5821,-3.5852,-3.5882,-3.6024,-3.6001,-3.6043,-3.6115,-3.6174,-3.619,-3.6204,-3.6253,-3.6271,-3.6054,-3.6054,-3.6054,0,-3.5398,-3.5493,-3.549,-3.5562,-3.5595,-3.5567,-3.5647,-3.5677,-3.5738,-3.5762,-3.573,-3.5856,-3.5884,-3.5994,-3.6028,-3.6054,-3.6075,-3.6036,-3.6188,-3.6202,-3.6215,-3.6262,-3.628,-3.6059,-3.6058,-3.6058,-3.6057,0,-3.5565,-3.5632,-3.5691,-3.575,-3.5791,-3.5867,-3.5874,-3.5916,-3.5907,-3.5918,-3.601,-3.6042,-3.6103,-3.6129,-3.6122,-3.6238,-3.6219,-3.6188,-3.613,-3.6239,-3.6283,-3.6301,-3.6065,-3.6064,-3.6062,-3.6061,0,0,-3.5734,-3.579,-3.5812,-3.5837,-3.5885,-3.5936,-3.6011,-3.607,-3.6105,-3.6149,-3.621,-3.6297,-3.6268,-3.6301,-3.6297,-3.6349,-3.6457,-3.6311,-3.6312,-3.6335,-3.6585,-3.6607,-3.6627,-3.6443,-3.6446,-3.6449,-3.6581,0,-3.5866,-3.5996,-3.5994,-3.6114,-3.6175,-3.6148,-3.6213,-3.6249,-3.6262,-3.6314,-3.6328,-3.6389,-3.6348,-3.6367,-3.6417,-3.6433,-3.6507,-3.6424,-3.6498,-3.6501,-3.6486,-3.665,-3.6673,-3.6796,-3.6598,-3.6601,-3.6603,0,-3.6037,-3.6085,-3.6211,-3.6248,-3.6273,-3.6332,-3.6385,-3.6437,-3.6477,-3.6482,-3.6519,-3.6507,-3.6582,-3.6524,-3.6626,-3.657,-3.6601,-3.6613,-3.6618,-3.6623,-3.6557,-3.6658,-3.6836,-3.6853,-3.663,-3.6628,-3.6626,0,-3.6144,-3.6241,-3.6328,-3.6352,-3.6398,-3.6439,-3.6461,-3.6497,-3.6532,-3.658,-3.6602,-3.6658,-3.6688,-3.6731,-3.6734,-3.6692,-3.6837,-3.6779,-3.6842,-3.6842,-3.6872,-3.687,-3.7055,-3.6896,-3.6896,-3.6895,-3.6895,0,-3.629,-3.6368,-3.6377,-3.6431,-3.6516,-3.6514,-3.6599,-3.6617,-3.6649,-3.6705,-3.6687,-3.674,-3.6741,-3.6795,-3.6798,-3.6881,-3.6896,-3.6901,-3.6901,-3.6902,-3.6901,-3.692,-3.6911,-3.69,-3.6899,-3.6898,-3.6897,0,-3.6424,-3.6434,-3.6527,-3.6563,-3.6574,-3.6636,-3.6666,-3.6717,-3.6728,-3.6799,-3.6816,-3.6833,-3.6895,-3.6903,-3.6976,-3.6978,-3.7078,-3.7069,-3.7064,-3.7062,-3.7123,-3.7116,-3.7325,-3.7352,-3.7178,-3.7179,-3.7181,0,-3.6515,-3.6574,-3.6617,-3.6653,-3.6676,-3.6735,-3.6771,-3.6771,-3.6809,-3.6859,-3.6903,-3.6964,-3.7012,-3.7113,-3.7132,-3.7188,-3.7179,-3.7249,-3.7187,-3.7186,-3.7177,-3.7173,-3.7178,-3.726,-3.7262,-3.7263,-3.7264,0,-3.6676,-3.6677,-3.673,-3.6784,-3.6827,-3.687,-3.691,-3.6941,-3.6947,-3.699,-3.7054,-3.7091,-3.7166,-3.7226,-3.7281,-3.7302,-3.7284,-3.7284,-3.7301,-3.7301,-3.7295,-3.7297,-3.7094,-3.7279,-3.7277,-3.7276,-3.7275,-3.7275,-3.679,-3.684,-3.6877,-3.6936,-3.6966,-3.7004,-3.7053,-3.707,-3.7123,-3.7183,-3.7181,-3.725,-3.7288,-3.736,-3.7385,-3.7439,-3.7416,-3.7441,-3.7447,-3.7453,-3.7458,-3.7288,-3.745,-3.7449,-3.7449,-3.7448,-3.7448,0,-3.6947,-3.697,-3.7024,-3.708,-3.7126,-3.7106,-3.7149,-3.7189,-3.725,-3.7287,-3.7335,-3.7407,-3.7465,-3.7489,-3.7546,-3.7584,-3.7577,-3.7599,-3.7595,-3.76,-3.7477,-3.7455,-3.7603,-3.7603,-3.7603,-3.7603,-3.7603,-3.7603,-3.7034,-3.7118,-3.7124,-3.7222,-3.7244,-3.7312,-3.7338,-3.7372,-3.7401,-3.7483,-3.7531,-3.7546,-3.7577,-3.7636,-3.7688,-3.7693,-3.7714,-3.7739,-3.7741,-3.7624,-3.7609,-3.7594,-3.7573,-3.7744,-3.7744,-3.7859,-3.786,-3.7861]},{"header":{"parameterUnit":"m.s-1","parameterCategory":1,"la1":30.2991,"la2":30.254,"lo1":-89.0895,"lo2":-89.0444,"dy":0.0017,"dx":0.0017,"nx":28,"ny":28,"refTime":"2025-06-02T09:00:00:Z","depth":0,"parameterNumber":3,"parameterNumberName":"V-component_of_WINDS"},"data":[0,0,0,0,0,0,0,0,0,0,0,0,0,0,0,0,0,0,0,0,0,0,0,0,0,0,0,0,0,0,0,0,0,0,0,0,0,0,0,0,0,0,0,0,0,0,0,0,0,0,0,0,0,0,0,0,0,0,1.9377,1.9377,0,1.9355,1.9355,1.9355,1.9279,1.9278,1.9276,1.9274,1.9254,1.9255,1.9256,0,0,0,0,0,0,0,0,0,0,0,0,0,1.9356,1.9356,1.9377,1.9377,1.9376,1.9355,1.9355,1.9355,1.928,1.9278,1.9276,1.9274,1.9253,1.9255,1.9256,0,0,0,0,0,0,0,0,0,0,0,0,0,1.9353,1.9357,1.9377,1.9336,1.9333,1.9355,1.9355,1.9354,1.928,1.9278,1.9275,1.9273,1.9253,1.9255,1.9256,1.9317,0,0,1.9261,1.9262,0,0,0,0,0,0,0,0,1.9353,1.9353,1.9343,1.9339,1.9335,1.9317,1.934,1.9342,1.9281,1.93,1.9274,1.9271,1.9277,1.9277,1.9278,1.9316,1.9315,1.9261,1.9262,1.9263,1.9263,0,0,0,0,0,0,0,1.9353,1.9354,1.9368,1.9343,1.9338,1.932,1.9317,1.934,1.9303,1.9298,1.9293,1.9291,1.9275,1.9277,1.9277,1.9314,1.9261,1.9262,1.9263,1.9264,1.94,1.9403,0,0,0,0,0,0,1.9359,1.9355,1.9369,1.9368,1.9338,1.9322,1.9319,1.9326,1.9303,1.9297,1.9293,1.9288,1.9275,1.9275,1.9276,1.9344,1.9263,1.9264,1.9265,1.9397,1.9401,1.9403,0,0,0,0,0,0,1.9359,1.9361,1.937,1.936,1.9359,1.9325,1.9334,1.9327,1.9328,1.9299,1.9292,1.9302,1.9273,1.9274,1.9307,1.9342,1.9265,1.9266,1.9394,1.9398,1.9402,1.9482,0,0,0,0,0,0,1.9358,1.9361,1.9383,1.9361,1.936,1.9401,1.9336,1.9328,1.9331,1.9324,1.9305,1.93,1.9271,1.9305,1.9308,1.9343,1.9267,1.9391,1.9396,1.9401,1.9476,1.9488,1.9499,0,0,0,0,0,1.9358,1.9407,1.9385,1.9387,1.9387,1.9403,1.9403,1.9368,1.9334,1.9356,1.9338,1.9301,1.9339,1.9309,1.9312,1.9348,1.9388,1.9395,1.94,1.9471,1.9486,1.9498,0,0,0,0,0,0,1.9436,1.9404,1.9378,1.9422,1.9416,1.939,1.9417,1.9385,1.9389,1.9382,1.934,1.9336,1.9375,1.9365,1.9333,1.9405,1.9357,1.9364,1.941,1.9424,1.9435,1.9436,1.9269,0,0,0,0,0,1.9458,1.9473,1.9444,1.9485,1.9483,1.9451,1.9457,1.9431,1.9423,1.942,1.9403,1.9397,1.9408,1.9416,1.9424,1.9475,1.9469,1.9501,1.9513,1.9522,1.9528,1.9554,1.9567,1.9423,1.9423,1.9423,0,0,1.9504,1.9488,1.95,1.9501,1.9493,1.9509,1.9449,1.947,1.9481,1.9423,1.9452,1.9441,1.9431,1.9473,1.9491,1.9466,1.9567,1.953,1.9538,1.9538,1.9561,1.9575,1.9587,1.9427,1.9427,1.9426,0,0,1.9595,1.9586,1.9618,1.9611,1.96,1.9578,1.9586,1.9566,1.9555,1.9584,1.954,1.9555,1.9574,1.9569,1.9569,1.9659,1.9625,1.9664,1.9722,1.9748,1.9759,1.9769,1.98,1.9811,1.967,1.967,1.967,0,1.9654,1.9676,1.9639,1.9662,1.9663,1.9611,1.9643,1.9639,1.9632,1.9634,1.9606,1.9629,1.9619,1.9659,1.9681,1.9683,1.9691,1.9664,1.976,1.977,1.9778,1.9807,1.9819,1.9675,1.9674,1.9674,1.9673,0,1.9748,1.9765,1.9793,1.9785,1.979,1.9818,1.9785,1.9795,1.9769,1.975,1.9781,1.9767,1.9771,1.9779,1.9755,1.9816,1.98,1.9768,1.9718,1.9797,1.9824,1.9835,1.9681,1.968,1.9678,1.9677,0,0,1.9886,1.9858,1.9869,1.9865,1.9849,1.9861,1.9887,1.989,1.9899,1.9896,1.9916,1.9934,1.9903,1.9903,1.9878,1.9901,1.9972,1.9865,1.9864,1.9884,2.0037,2.006,2.0074,1.995,1.9952,1.9954,2.0037,0,1.9972,2.0013,1.998,2.0027,2.0042,1.9993,2.0016,2.0009,1.9993,2.0003,1.9985,1.9998,1.9957,1.9957,1.9977,1.9959,2.0002,1.9953,1.9968,1.9969,1.9969,2.0088,2.0113,2.0192,2.0047,2.0049,2.005,0,2.0076,2.0077,2.0125,2.0106,2.0111,2.0131,2.0131,2.0142,2.0134,2.012,2.0121,2.009,2.0114,2.0067,2.01,2.0067,2.0072,2.0064,2.0067,2.0065,2.0013,2.0088,2.0217,2.0228,2.0067,2.0065,2.0064,0,2.017,2.0184,2.0214,2.0212,2.0191,2.0206,2.0198,2.0187,2.0191,2.0192,2.0194,2.0199,2.0201,2.0205,2.0176,2.0145,2.0212,2.0163,2.0201,2.0202,2.0216,2.0215,2.0345,2.0222,2.0222,2.0222,2.0222,0,2.0268,2.0299,2.0255,2.0274,2.0307,2.0271,2.0305,2.0292,2.0283,2.0298,2.0258,2.0273,2.0235,2.0246,2.0224,2.0254,2.0256,2.0246,2.0239,2.0248,2.0249,2.0249,2.0242,2.0225,2.0224,2.0224,2.0223,0,2.0377,2.035,2.0379,2.0356,2.0351,2.0377,2.0358,2.0374,2.0356,2.0376,2.0378,2.035,2.0361,2.0333,2.0341,2.0326,2.0369,2.0354,2.0371,2.0366,2.0405,2.0401,2.0538,2.0554,2.0423,2.0424,2.0425,0,2.044,2.0463,2.0442,2.0449,2.0443,2.0455,2.0459,2.0424,2.043,2.0422,2.044,2.0448,2.0452,2.0474,2.0454,2.046,2.0444,2.0492,2.0444,2.0453,2.0442,2.0441,2.0442,2.0501,2.0502,2.0504,2.0505,0,2.0554,2.054,2.0546,2.0548,2.0553,2.0554,2.0551,2.0559,2.0522,2.0531,2.0542,2.0546,2.0554,2.0562,2.0564,2.0556,2.0524,2.052,2.0529,2.0537,2.0545,2.054,2.0395,2.0516,2.0515,2.0514,2.0514,2.0513,2.0641,2.0658,2.0647,2.0655,2.065,2.0648,2.0662,2.0645,2.0654,2.0656,2.0636,2.0652,2.0643,2.0641,2.0637,2.0649,2.0627,2.0641,2.0643,2.0647,2.0652,2.0545,2.065,2.0649,2.0649,2.0649,2.0648,0,2.0752,2.0742,2.075,2.0747,2.0754,2.0724,2.072,2.0727,2.0741,2.0736,2.0741,2.0753,2.0762,2.0743,2.0748,2.0762,2.0747,2.0764,2.0762,2.076,2.0672,2.0663,2.0776,2.0775,2.0775,2.0775,2.0775,2.0775,2.081,2.0837,2.0821,2.0846,2.0836,2.085,2.085,2.0848,2.0843,2.0859,2.0865,2.0853,2.0842,2.0847,2.0853,2.0847,2.0851,2.0872,2.0862,2.0779,2.0767,2.0755,2.0746,2.0874,2.0874,2.0948,2.0949,2.0949]}]]